Regional Weather Roundup
Issued by NWS

Home | Current Version | Previous Version | Graphics & Text | Print | Product List | Glossary On
Versions: 1 2 3 4 5 6 7 8 9 10 11 12 13 14 15 16 17 18 19 20 21 22 23 24 25 26 27 28 29 30 31 32 33 34 35 36 37 38 39 40 41 42 43 44 45 46 47 48 49 50
000
ASUS43 KLSX 250007
RWRMO

WEATHER SUMMARY FOR MISSOURI
NATIONAL WEATHER SERVICE SPRINGFIELD MO
700 PM CDT FRI MAR 24 2017

NOTE: "FAIR" INDICATES FEW OR NO CLOUDS BELOW 12,000 FEET WITH NO
       SIGNIFICANT WEATHER AND/OR OBSTRUCTIONS TO VISIBILITY.
       CURRENT SKY AND/OR WEATHER CONDITIONS ARE NOT AVAILABLE FOR
       CHILLICOTHE AND FARMINGTON.

MOZ001>031-035>038-043-044-053-054-250100-
...NORTHERN AND WESTERN MISSOURI...

CITY           SKY/WX    TMP DP  RH WIND       PRES   REMARKS
KANSAS CTY INT CLOUDY    61  59  93 SE10      29.84S
6HR MIN TEMP:  58; 6HR MAX TEMP:  64; 6HR PCP:  0.04;

KANSAS C DTWN  CLOUDY    63  59  87 S6        29.83F
6HR MIN TEMP:  62; 6HR MAX TEMP:  67; 6HR PCP:  0.04;

LEE`S SUMMIT   CLOUDY    60  59  96 SE15      29.85S
6HR MIN TEMP:  60; 6HR MAX TEMP:  67; 6HR PCP:  0.27;

ST JOSEPH      CLOUDY    58  58 100 E7        29.85S
6HR MIN TEMP:  58; 6HR MAX TEMP:  62; 6HR PCP:  0.05;

CHILLICOTHE      N/A     57  57 100 SE7       29.90S
6HR MIN TEMP:  56; 6HR MAX TEMP:  65; 6HR PCP:  0.90;

KIRKSVILLE     LGT RAIN  56  56 100 S5        29.94R FOG
6HR MIN TEMP:  56; 6HR MAX TEMP:  60; 6HR PCP:  0.78;


$$
MOZ066>068-077>081-088>096-101>105-250100-
...SOUTHWEST MISSOURI...

CITY           SKY/WX    TMP DP  RH WIND       PRES   REMARKS
SPRINGFIELD    HVY RAIN  59  57  93 E7        29.88F FOG
6HR MIN TEMP:  59; 6HR MAX TEMP:  68; 6HR PCP:  0.77;

JOPLIN         CLOUDY    62  58  86 SE9G21    29.80F
6HR MIN TEMP:  61; 6HR MAX TEMP:  65; 6HR PCP:  0.19;

BRANSON        LGT RAIN  59  59 100 E9        29.87F FOG

$$
MOZ032>034-039>042-045>050-055>058-069>072-250100-
...CENTRAL MISSOURI...

CITY           SKY/WX    TMP DP  RH WIND       PRES   REMARKS
COLUMBIA       CLOUDY    60  58  92 NW5       29.94R
6HR MIN TEMP:  60; 6HR MAX TEMP:  72; 6HR PCP:  0.01;

JEFFERSON CITY CLOUDY    65  56  72 W7        29.93R
6HR MIN TEMP:  65; 6HR MAX TEMP:  76;

ROLLA          MOCLDY    69  53  56 S12       29.92S
6HR MIN TEMP:  69; 6HR MAX TEMP:  76;

SEDALIA        LGT RAIN  61  58  90 S9        29.92S
6HR MIN TEMP:  60; 6HR MAX TEMP:  70; 6HR PCP:  0.39;

WHITEMAN AFB   LGT RAIN  58  58 100 S12G22    29.88S FOG
WARRENSBURG    RAIN      57  55  94 SE18      29.87F
OSAGE BEACH    CLOUDY   N/A N/A N/A CALM      29.92S

$$
MOZ051-052-059>065-250100-
...EAST CENTRAL MISSOURI...

CITY           SKY/WX    TMP DP  RH WIND       PRES   REMARKS
ST LOUIS INTL  CLOUDY    75  54  47 S14       29.96R
6HR MIN TEMP:  75; 6HR MAX TEMP:  81; 6HR PCP: TRACE;

SPIRIT OF STL  CLOUDY    73  54  51 S7        29.94R
6HR MIN TEMP:  73; 6HR MAX TEMP:  79;

ST CHARLES     MOCLDY    71  54  54 S8        29.94S
6HR MIN TEMP:  71; 6HR MAX TEMP:  81;


$$
MOZ072>076-082>087-097>100-106>115-250100-
...SOUTH CENTRAL AND SOUTHEAST MISSOURI...

CITY           SKY/WX    TMP DP  RH WIND       PRES   REMARKS
CAPE GIRARDEAU CLOUDY    69  56  62 SE13      30.01R
6HR MIN TEMP:  69; 6HR MAX TEMP:  74;

FARMINGTON     CLOUDY    70  56  61 S10       30.00R
6HR MIN TEMP:  70; 6HR MAX TEMP:  75;

POPLAR BLUFF   CLOUDY    71  60  68 SE7       29.98R
6HR MIN TEMP:  71; 6HR MAX TEMP:  75;

WEST PLAINS    CLOUDY    71  55  56 S14       29.95R
6HR MIN TEMP:  70; 6HR MAX TEMP:  73;


$$




USA.gov is the U.S. government's official web portal to all federal, state and local government web resources and services.